Regional Weather Roundup
Issued by NWS

Home | Current Version | Previous Version | Graphics & Text | Print | Product List | Glossary Off
Versions: 1 2 3 4 5 6 7 8 9 10 11 12 13 14 15 16 17 18 19 20 21 22 23 24 25 26 27 28 29 30 31 32 33 34 35 36 37 38 39 40 41 42 43 44 45 46 47 48 49 50

000
ASUS43 KDMX 020107
RWRIA

WEATHER ROUNDUP FOR IOWA
NATIONAL WEATHER SERVICE DES MOINES IA
700 PM CST SUN MAR 01 2015

NOTE: "FAIR" INDICATES FEW OR NO CLOUDS BELOW 12,000 FEET WITH NO
SIGNIFICANT WEATHER AND/OR OBSTRUCTIONS TO VISIBILITY.

* - THESE STATIONS ARE NOT NWS STATIONS...THUS NOT UNDER NWS
QUALITY CONTROL.  THEY ALSO DO NOT REPORT WEATHER SUCH
AS PRECIPITATION OR FOG.

IAZ001>003-012>014-020>022-031>034-043>046-020200-
   NORTHWEST IOWA

CITY           SKY/WX    TMP DP  RH WIND       PRES   REMARKS
CARROLL *      PTCLDY    25  18  74 SW7       30.37R WCI  17
CHEROKEE *     PTCLDY    28  16  59 NW7       30.37R WCI  21
DENISON *      CLEAR     27  18  69 CALM      30.36R
LE MARS *      CLEAR     28  16  59 N7        30.38R WCI  21
ORANGE CITY *  CLEAR     28  16  59 NW9       30.36R WCI  20
SHELDON *      CLEAR     25  18  74 NW12      30.35R WCI  14
SIOUX CITY     CLEAR     30  13  49 N9        30.37R WCI  22
SPENCER        CLEAR     24  15  68 NW12      30.36R WCI  13
STORM LAKE *   MOCLDY    27  14  59 NW9       30.36R WCI  17
$$

IAZ055>058-069>071-079>083-090>094-020200-
   SOUTHWEST IOWA

CITY           SKY/WX    TMP DP  RH WIND       PRES   REMARKS
ATLANTIC *     PTCLDY    25  19  80 CALM      30.39R
AUDUBON *      CLEAR     25  16  68 CALM      30.38R
CLARINDA *     CLEAR     28  16  59 CALM      30.41R
COUNCIL BLFS * CLEAR     34  16  47 N5        30.37R WCI  30
CRESTON *      CLEAR     27  18  69 N7        30.39R WCI  19
HARLAN  *      CLEAR     27  21  80 CALM      30.42R
LAMONI         MOCLDY    30  18  60 NW9       30.38R WCI  22
RED OAK *      CLOUDY    28  19  69 CALM      30.39R
SHENANDOAH *   CLEAR     32  16  51 CALM      30.40R
$$

IAZ047>049-059>061-072>074-084-020200-
   CENTRAL IOWA

CITY           SKY/WX    TMP DP  RH WIND       PRES   REMARKS
AMES           CLEAR     20  13  74 W5        30.38R WCI  13
ANKENY *       CLEAR     27  16  63 NW3       30.40R
CHARITON *     PTCLDY    28  19  69 N10       30.39R WCI  19
DES MOINES     PTCLDY    29  14  53 N6        30.40R WCI  23
GRINNELL*      CLEAR     21  16  79 W3        30.38R
KNOXVILLE *    CLEAR     27  16  63 N7        30.38R WCI  19
MARSHALLTOWN     N/A     17  11  77 SW7       30.36R WCI   8
PELLA *        CLEAR     27  19  74 NW9       30.41R WCI  17
PERRY *          N/A     25  18  74 W6        30.39R WCI  18
$$

IAZ004>006-015-016-023>025-035-036-020200-
   NORTH CENTRAL IOWA

CITY           SKY/WX    TMP DP  RH WIND       PRES   REMARKS
ALGONA *       CLEAR     21 N/A N/A W7        30.35R WCI  13
CLARION *      CLEAR     19  16  86 W8        30.35R WCI   9
ESTHERVILLE    CLEAR     23  15  71 NW18      30.33R WCI   9
FORT DODGE *   CLEAR     23  12  63 W5        30.37R WCI  17
MASON CITY     PTCLDY    19  11  70 W8        30.34R WCI   9
FOREST CITY *  PTCLDY    19  10  68 W6        30.33R WCI  11
IOWA FALLS *     N/A     14  10  85 W10       30.36R WCI   1
$$

IAZ007>011-017>019-026>030-037>042-050>054-066-020200-
   NORTHEAST IOWA

CITY           SKY/WX    TMP DP  RH WIND       PRES   REMARKS
CEDAR RAPIDS   CLEAR     17  11  77 W9        30.36R WCI   6
CHARLES CITY * CLEAR     19  12  73 W8        30.32R WCI   9
CLINTON *      CLEAR     18  12  79 NW9       30.37R WCI   6
DECORAH *      PTCLDY    18   9  68 CALM      30.29R
DUBUQUE        CLEAR     17   9  70 W9        30.32R WCI   6
MONTICELLO *   CLEAR     16   9  73 W7        30.35R WCI   6
OELWEIN *      CLEAR     14   7  73 W9        30.34R WCI   2
WATERLOO       CLEAR     17  10  74 W5        30.35R WCI  10
$$

IAZ064-065-067-068-078-020200-
   EAST CENTRAL IOWA

CITY           SKY/WX    TMP DP  RH WIND       PRES   REMARKS
DAVENPORT      CLEAR     14   9  80 W10       30.36R WCI   1
IOWA CITY      CLEAR     23  13  65 NW10      30.40R WCI  12
MT. PLEASANT * PTCLDY    23  16  74 CALM      30.39R
MUSCATINE *    CLEAR     27  18  69 NW10      30.40R WCI  17
QUAD CITIES    CLEAR     22  14  71 W9        30.35R WCI  12
$$

IAZ062-063-075>077-085>089-095>099-020200-
   SOUTHEAST IOWA

CITY           SKY/WX    TMP DP  RH WIND       PRES   REMARKS
BURLINGTON     PTCLDY    21  16  81 W5        30.38R WCI  15
FAIRFIELD *    CLEAR     23  16  74 NW8       30.38R WCI  14
FORT MADISON * CLEAR     23  18  80 CALM      30.39R
KEOKUK *       CLEAR     27  19  74 SW3       30.39R
OSKALOOSA *      N/A     25  18  74 N10       30.39R WCI  15
CENTERVILLE *  CLEAR     27  23  86 W3        30.38R
OTTUMWA        CLEAR     26  19  74 NW10      30.38R WCI  16
WASHINGTON *   CLEAR     27  21  80 NW8G15    30.39R WCI  18
$$

ABBREVIATIONS USED IN REMARKS
   TC - TEMPERATURES IN CELSIUS
  WCI - WIND CHILL INDEX
   HX - HEAT INDEX
  VSB - VISIBILITY
$$




USA.gov is the U.S. government's official web portal to all federal, state and local government web resources and services.